Time,TemperatureF,DewpointF,PressureIn,WindDirection,WindDirectionDegrees,WindSpeedMPH,WindSpeedGustMPH,Humidity,HourlyPrecipIn,Conditions,Clouds,dailyrainin,SoftwareType,DateUTC
2013-04-22 00:01:00,41.7,33.3,29.87,ESE,115,1.0,2.0,72,0.00,,,0.00,WeatherCatV1.02B3,2013-04-22 04:01:00,
2013-04-22 00:06:00,41.9,33.5,29.86,ESE,115,0.0,1.0,72,0.00,,,0.00,WeatherCatV1.02B3,2013-04-22 04:06:00,
2013-04-22 00:11:00,41.9,33.5,29.86,ESE,112,1.0,1.0,72,0.00,,,0.00,WeatherCatV1.02B3,2013-04-22 04:11:00,
2013-04-22 00:16:00,41.8,33.8,29.86,ESE,110,0.0,1.0,73,0.00,,,0.00,WeatherCatV1.02B3,2013-04-22 04:16:00,
2013-04-22 00:21:00,41.6,33.3,29.86,East,91,0.0,2.0,72,0.00,,,0.00,WeatherCatV1.02B3,2013-04-22 04:21:00,
2013-04-22 00:26:00,41.7,33.3,29.86,SE,133,0.0,1.0,72,0.00,,,0.00,WeatherCatV1.02B3,2013-04-22 04:26:00,
2013-04-22 00:31:00,41.5,33.5,29.86,ESE,103,0.0,1.0,73,0.00,,,0.00,WeatherCatV1.02B3,2013-04-22 04:31:00,
2013-04-22 00:36:00,41.2,33.2,29.86,ESE,113,1.0,1.0,73,0.00,,,0.00,WeatherCatV1.02B3,2013-04-22 04:36:00,
2013-04-22 00:41:00,41.3,33.3,29.86,ESE,119,0.0,1.0,73,0.00,,,0.00,WeatherCatV1.02B3,2013-04-22 04:41:00,
2013-04-22 00:46:00,41.2,33.2,29.86,SE,136,0.0,1.0,73,0.00,,,0.00,WeatherCatV1.02B3,2013-04-22 04:46:00,
2013-04-22 00:51:00,41.2,33.2,29.86,ESE,119,0.0,1.0,73,0.00,,,0.00,WeatherCatV1.02B3,2013-04-22 04:51:00,
2013-04-22 00:56:00,41.2,33.2,29.86,East,93,1.0,1.0,73,0.00,,,0.00,WeatherCatV1.02B3,2013-04-22 04:56:00,
2013-04-22 01:01:00,41.1,33.1,29.86,ESE,110,0.0,1.0,73,0.00,,,0.00,WeatherCatV1.02B3,2013-04-22 05:01:00,
2013-04-22 01:06:00,40.9,32.9,29.86,SE,131,0.0,0.0,73,0.00,,,0.00,WeatherCatV1.02B3,2013-04-22 05:06:00,
2013-04-22 01:11:00,40.9,32.9,29.86,East,95,0.0,1.0,73,0.00,,,0.00,WeatherCatV1.02B3,2013-04-22 05:11:00,
2013-04-22 01:16:00,41.0,33.0,29.85,SE,128,1.0,1.0,73,0.00,,,0.00,WeatherCatV1.02B3,2013-04-22 05:16:00,
2013-04-22 01:21:00,41.1,33.1,29.85,SE,128,0.0,1.0,73,0.00,,,0.00,WeatherCatV1.02B3,2013-04-22 05:21:00,
2013-04-22 01:26:00,41.3,33.0,29.85,ESE,117,0.0,1.0,72,0.00,,,0.00,WeatherCatV1.02B3,2013-04-22 05:26:00,
2013-04-22 01:31:00,41.5,33.2,29.85,ESE,114,0.0,2.0,72,0.00,,,0.00,WeatherCatV1.02B3,2013-04-22 05:31:00,
2013-04-22 01:36:00,41.4,33.1,29.85,ESE,107,1.0,2.0,72,0.00,,,0.00,WeatherCatV1.02B3,2013-04-22 05:36:00,
2013-04-22 01:41:00,41.5,33.5,29.85,ENE,77,0.0,1.0,73,0.00,,,0.00,WeatherCatV1.02B3,2013-04-22 05:41:00,
2013-04-22 01:46:00,41.3,33.3,29.85,ESE,122,2.0,2.0,73,0.00,,,0.00,WeatherCatV1.02B3,2013-04-22 05:46:00,
2013-04-22 01:51:00,41.3,33.3,29.85,ESE,113,0.0,2.0,73,0.00,,,0.00,WeatherCatV1.02B3,2013-04-22 05:51:00,
2013-04-22 01:56:00,41.2,33.2,29.85,ESE,109,0.0,1.0,73,0.00,,,0.00,WeatherCatV1.02B3,2013-04-22 05:56:00,
2013-04-22 02:01:00,40.9,33.3,29.85,ESE,117,0.0,0.0,74,0.00,,,0.00,WeatherCatV1.02B3,2013-04-22 06:01:00,
2013-04-22 02:06:00,40.6,33.3,29.85,East,85,1.0,1.0,75,0.00,,,0.00,WeatherCatV1.02B3,2013-04-22 06:06:00,
2013-04-22 02:11:00,40.6,33.3,29.85,SE,133,0.0,1.0,75,0.00,,,0.00,WeatherCatV1.02B3,2013-04-22 06:11:00,
2013-04-22 02:16:00,40.4,33.4,29.85,ESE,117,1.0,1.0,76,0.00,,,0.00,WeatherCatV1.02B3,2013-04-22 06:16:00,
2013-04-22 02:21:00,40.2,33.2,29.84,ESE,107,0.0,1.0,76,0.00,,,0.00,WeatherCatV1.02B3,2013-04-22 06:21:00,
2013-04-22 02:26:00,40.1,33.5,29.84,ESE,117,0.0,1.0,77,0.00,,,0.00,WeatherCatV1.02B3,2013-04-22 06:26:00,
2013-04-22 02:31:00,39.9,33.6,29.84,ESE,119,1.0,1.0,78,0.00,,,0.00,WeatherCatV1.02B3,2013-04-22 06:31:00,
2013-04-22 02:36:00,39.7,33.4,29.84,ESE,108,0.0,1.0,78,0.00,,,0.00,WeatherCatV1.02B3,2013-04-22 06:36:00,
2013-04-22 02:41:00,39.7,33.4,29.84,ESE,111,0.0,1.0,78,0.00,,,0.00,WeatherCatV1.02B3,2013-04-22 06:41:00,
2013-04-22 02:46:00,39.6,33.6,29.84,ESE,112,0.0,1.0,79,0.00,,,0.00,WeatherCatV1.02B3,2013-04-22 06:46:00,
2013-04-22 02:51:00,39.6,33.6,29.84,ESE,108,1.0,1.0,79,0.00,,,0.00,WeatherCatV1.02B3,2013-04-22 06:51:00,
2013-04-22 02:56:00,39.6,33.6,29.84,ESE,120,1.0,1.0,79,0.00,,,0.00,WeatherCatV1.02B3,2013-04-22 06:56:00,
2013-04-22 03:01:00,39.5,33.8,29.84,East,86,0.0,1.0,80,0.00,,,0.00,WeatherCatV1.02B3,2013-04-22 07:01:00,
2013-04-22 03:06:00,39.5,33.8,29.84,ESE,113,1.0,2.0,80,0.00,,,0.00,WeatherCatV1.02B3,2013-04-22 07:06:00,
2013-04-22 03:11:00,39.3,33.7,29.83,SE,138,0.0,1.0,80,0.00,,,0.00,WeatherCatV1.02B3,2013-04-22 07:11:00,
2013-04-22 03:16:00,39.2,33.9,29.83,ESE,119,1.0,2.0,81,0.00,,,0.00,WeatherCatV1.02B3,2013-04-22 07:16:00,
2013-04-22 03:21:00,39.1,33.8,29.83,ESE,108,1.0,2.0,81,0.00,,,0.00,WeatherCatV1.02B3,2013-04-22 07:21:00,
2013-04-22 03:26:00,39.1,33.8,29.83,ESE,117,1.0,2.0,81,0.00,,,0.00,WeatherCatV1.02B3,2013-04-22 07:26:00,
2013-04-22 03:31:00,39.2,33.9,29.83,ESE,108,2.0,3.0,81,0.00,,,0.00,WeatherCatV1.02B3,2013-04-22 07:31:00,
2013-04-22 03:36:00,39.1,33.8,29.83,ESE,113,0.0,2.0,81,0.00,,,0.00,WeatherCatV1.02B3,2013-04-22 07:36:00,
2013-04-22 03:41:00,39.0,34.0,29.83,ESE,105,1.0,1.0,82,0.00,,,0.00,WeatherCatV1.02B3,2013-04-22 07:41:00,
2013-04-22 03:46:00,38.9,33.9,29.82,ESE,123,0.0,1.0,82,0.00,,,0.00,WeatherCatV1.02B3,2013-04-22 07:46:00,
2013-04-22 03:51:00,38.9,33.9,29.82,ESE,120,1.0,3.0,82,0.00,,,0.00,WeatherCatV1.02B3,2013-04-22 07:51:00,
2013-04-22 03:56:00,38.7,33.7,29.82,ESE,110,0.0,1.0,82,0.00,,,0.00,WeatherCatV1.02B3,2013-04-22 07:56:00,
2013-04-22 04:01:00,38.5,33.5,29.82,SE,127,0.0,2.0,82,0.00,,,0.00,WeatherCatV1.02B3,2013-04-22 08:01:00,
2013-04-22 04:06:00,38.5,33.5,29.82,East,101,0.0,1.0,82,0.00,,,0.00,WeatherCatV1.02B3,2013-04-22 08:06:00,
2013-04-22 04:11:00,38.5,33.5,29.82,East,96,1.0,1.0,82,0.00,,,0.00,WeatherCatV1.02B3,2013-04-22 08:11:00,
2013-04-22 04:16:00,38.5,33.5,29.82,ESE,116,1.0,1.0,82,0.00,,,0.00,WeatherCatV1.02B3,2013-04-22 08:16:00,
2013-04-22 04:21:00,38.3,33.3,29.82,ESE,120,1.0,1.0,82,0.00,,,0.00,WeatherCatV1.02B3,2013-04-22 08:21:00,
2013-04-22 04:26:00,38.1,33.4,29.82,ESE,113,0.0,1.0,83,0.00,,,0.00,WeatherCatV1.02B3,2013-04-22 08:26:00,
2013-04-22 04:31:00,37.7,33.0,29.82,ESE,113,0.0,0.0,83,0.00,,,0.00,WeatherCatV1.02B3,2013-04-22 08:31:00,
2013-04-22 04:36:00,37.5,33.1,29.82,ESE,119,1.0,1.0,84,0.00,,,0.00,WeatherCatV1.02B3,2013-04-22 08:36:00,
2013-04-22 04:41:00,37.6,32.9,29.82,ESE,109,0.0,1.0,83,0.00,,,0.00,WeatherCatV1.02B3,2013-04-22 08:41:00,
2013-04-22 04:46:00,37.6,32.9,29.81,SE,130,0.0,1.0,83,0.00,,,0.00,WeatherCatV1.02B3,2013-04-22 08:46:00,
2013-04-22 04:51:00,37.5,33.1,29.81,ESE,116,1.0,1.0,84,0.00,,,0.00,WeatherCatV1.02B3,2013-04-22 08:51:00,
2013-04-22 04:56:00,37.5,33.1,29.81,ESE,113,1.0,1.0,84,0.00,,,0.00,WeatherCatV1.02B3,2013-04-22 08:56:00,
2013-04-22 05:01:00,37.4,32.7,29.81,ESE,107,0.0,0.0,83,0.00,,,0.00,WeatherCatV1.02B3,2013-04-22 09:01:00,
2013-04-22 05:06:00,37.0,32.6,29.81,ESE,107,0.0,1.0,84,0.00,,,0.00,WeatherCatV1.02B3,2013-04-22 09:06:00,
2013-04-22 05:11:00,36.7,32.6,29.81,ESE,115,0.0,1.0,85,0.00,,,0.00,WeatherCatV1.02B3,2013-04-22 09:11:00,
2013-04-22 05:16:00,36.4,32.3,29.82,ESE,115,0.0,0.0,85,0.00,,,0.00,WeatherCatV1.02B3,2013-04-22 09:16:00,
2013-04-22 05:21:00,35.9,31.8,29.82,ESE,115,0.0,0.0,85,0.00,,,0.00,WeatherCatV1.02B3,2013-04-22 09:21:00,
2013-04-22 05:26:00,35.6,32.1,29.82,ESE,115,0.0,0.0,87,0.00,,,0.00,WeatherCatV1.02B3,2013-04-22 09:26:00,
2013-04-22 05:31:00,35.4,31.9,29.82,ESE,115,0.0,1.0,87,0.00,,,0.00,WeatherCatV1.02B3,2013-04-22 09:31:00,
2013-04-22 05:36:00,35.5,32.3,29.82,ESE,117,0.0,1.0,88,0.00,,,0.00,WeatherCatV1.02B3,2013-04-22 09:36:00,
2013-04-22 05:41:00,35.6,32.1,29.81,SE,134,0.0,0.0,87,0.00,,,0.00,WeatherCatV1.02B3,2013-04-22 09:41:00,
2013-04-22 05:46:00,35.6,32.1,29.82,SE,131,0.0,0.0,87,0.00,,,0.00,WeatherCatV1.02B3,2013-04-22 09:46:00,
2013-04-22 05:51:00,35.3,31.8,29.82,SE,131,0.0,0.0,87,0.00,,,0.00,WeatherCatV1.02B3,2013-04-22 09:51:00,
2013-04-22 05:56:00,35.2,31.7,29.82,SE,131,0.0,0.0,87,0.00,,,0.00,WeatherCatV1.02B3,2013-04-22 09:56:00,
2013-04-22 06:01:00,35.1,31.6,29.82,SE,131,0.0,0.0,87,0.00,,,0.00,WeatherCatV1.02B3,2013-04-22 10:01:00,
2013-04-22 06:06:00,35.2,31.7,29.82,SE,131,0.0,0.0,87,0.00,,,0.00,WeatherCatV1.02B3,2013-04-22 10:06:00,
2013-04-22 06:11:00,35.1,31.3,29.82,SE,131,0.0,0.0,86,0.00,,,0.00,WeatherCatV1.02B3,2013-04-22 10:11:00,
2013-04-22 06:16:00,34.9,31.4,29.82,SE,131,0.0,0.0,87,0.00,,,0.00,WeatherCatV1.02B3,2013-04-22 10:16:00,
2013-04-22 06:21:00,34.7,31.2,29.82,SE,131,0.0,0.0,87,0.00,,,0.00,WeatherCatV1.02B3,2013-04-22 10:21:00,
2013-04-22 06:26:00,34.4,30.9,29.82,SE,131,0.0,0.0,87,0.00,,,0.00,WeatherCatV1.02B3,2013-04-22 10:26:00,
2013-04-22 06:31:00,34.0,30.8,29.82,SE,131,0.0,0.0,88,0.00,,,0.00,WeatherCatV1.02B3,2013-04-22 10:31:00,
2013-04-22 06:36:00,33.6,30.4,29.82,SE,131,0.0,0.0,88,0.00,,,0.00,WeatherCatV1.02B3,2013-04-22 10:36:00,
2013-04-22 06:41:00,33.3,30.7,29.82,SE,131,0.0,0.0,90,0.00,,,0.00,WeatherCatV1.02B3,2013-04-22 10:41:00,
2013-04-22 06:46:00,33.2,30.9,29.82,SE,131,0.0,0.0,91,0.00,,,0.00,WeatherCatV1.02B3,2013-04-22 10:46:00,
2013-04-22 06:51:00,33.4,31.1,29.82,SE,131,0.0,0.0,91,0.00,,,0.00,WeatherCatV1.02B3,2013-04-22 10:51:00,
2013-04-22 06:56:00,33.6,31.3,29.82,SE,131,0.0,0.0,91,0.00,,,0.00,WeatherCatV1.02B3,2013-04-22 10:56:00,
2013-04-22 07:01:00,33.8,31.2,29.82,SE,131,0.0,0.0,90,0.00,,,0.00,WeatherCatV1.02B3,2013-04-22 11:01:00,
2013-04-22 07:06:00,33.8,31.2,29.82,SE,131,0.0,0.0,90,0.00,,,0.00,WeatherCatV1.02B3,2013-04-22 11:06:00,
2013-04-22 07:11:00,33.6,31.0,29.82,SE,131,0.0,0.0,90,0.00,,,0.00,WeatherCatV1.02B3,2013-04-22 11:11:00,
2013-04-22 07:16:00,33.5,31.2,29.82,SE,131,0.0,0.0,91,0.00,,,0.00,WeatherCatV1.02B3,2013-04-22 11:16:00,
2013-04-22 07:21:00,33.4,30.8,29.82,SE,131,0.0,0.0,90,0.00,,,0.00,WeatherCatV1.02B3,2013-04-22 11:21:00,
2013-04-22 07:26:00,33.2,30.9,29.82,SE,131,0.0,0.0,91,0.00,,,0.00,WeatherCatV1.02B3,2013-04-22 11:26:00,
2013-04-22 07:31:00,33.3,31.0,29.82,SE,131,0.0,0.0,91,0.00,,,0.00,WeatherCatV1.02B3,2013-04-22 11:31:00,
2013-04-22 07:36:00,34.0,31.9,29.82,SE,131,0.0,0.0,92,0.00,,,0.00,WeatherCatV1.02B3,2013-04-22 11:36:00,
2013-04-22 07:41:00,34.9,32.5,29.82,SE,131,0.0,0.0,91,0.00,,,0.00,WeatherCatV1.02B3,2013-04-22 11:41:00,
2013-04-22 07:46:00,35.7,32.5,29.82,SE,130,0.0,1.0,88,0.00,,,0.00,WeatherCatV1.02B3,2013-04-22 11:46:00,
2013-04-22 07:51:00,36.7,33.2,29.82,ESE,117,0.0,0.0,87,0.00,,,0.00,WeatherCatV1.02B3,2013-04-22 11:51:00,
2013-04-22 07:56:00,37.7,33.9,29.82,ESE,117,0.0,0.0,86,0.00,,,0.00,WeatherCatV1.02B3,2013-04-22 11:56:00,
2013-04-22 08:01:00,38.6,33.9,29.82,ESE,117,0.0,0.0,83,0.00,,,0.00,WeatherCatV1.02B3,2013-04-22 12:01:00,
2013-04-22 08:06:00,39.1,33.5,29.82,ESE,117,0.0,1.0,80,0.00,,,0.00,WeatherCatV1.02B3,2013-04-22 12:06:00,
2013-04-22 08:11:00,39.8,33.8,29.82,ESE,117,0.0,1.0,79,0.00,,,0.00,WeatherCatV1.02B3,2013-04-22 12:11:00,
2013-04-22 08:16:00,40.4,33.8,29.82,ESE,110,0.0,1.0,77,0.00,,,0.00,WeatherCatV1.02B3,2013-04-22 12:16:00,
2013-04-22 08:21:00,40.9,33.9,29.82,ESE,117,0.0,1.0,76,0.00,,,0.00,WeatherCatV1.02B3,2013-04-22 12:21:00,
2013-04-22 08:26:00,41.6,34.3,29.82,ESE,116,0.0,1.0,75,0.00,,,0.00,WeatherCatV1.02B3,2013-04-22 12:26:00,
2013-04-22 08:31:00,42.2,34.5,29.82,ESE,115,0.0,1.0,74,0.00,,,0.00,WeatherCatV1.02B3,2013-04-22 12:31:00,
2013-04-22 08:36:00,43.0,35.3,29.82,ESE,115,1.0,1.0,74,0.00,,,0.00,WeatherCatV1.02B3,2013-04-22 12:36:00,
2013-04-22 08:41:00,43.4,34.6,29.82,ESE,116,1.0,2.0,71,0.00,,,0.00,WeatherCatV1.02B3,2013-04-22 12:41:00,
2013-04-22 08:46:00,43.9,35.5,29.81,ESE,106,1.0,2.0,72,0.00,,,0.00,WeatherCatV1.02B3,2013-04-22 12:46:00,
2013-04-22 08:51:00,44.4,35.2,29.81,ESE,114,1.0,2.0,70,0.00,,,0.00,WeatherCatV1.02B3,2013-04-22 12:51:00,
2013-04-22 08:56:00,44.8,35.6,29.81,ESE,115,0.0,1.0,70,0.00,,,0.00,WeatherCatV1.02B3,2013-04-22 12:56:00,
2013-04-22 09:01:00,45.4,35.5,29.81,ESE,105,1.0,1.0,68,0.00,,,0.00,WeatherCatV1.02B3,2013-04-22 13:01:00,
2013-04-22 09:06:00,45.9,35.2,29.81,East,91,0.0,2.0,66,0.00,,,0.00,WeatherCatV1.02B3,2013-04-22 13:06:00,
2013-04-22 09:11:00,46.5,35.8,29.80,ESE,103,1.0,2.0,66,0.00,,,0.00,WeatherCatV1.02B3,2013-04-22 13:11:00,
2013-04-22 09:16:00,47.1,34.8,29.80,ESE,117,1.0,2.0,62,0.00,,,0.00,WeatherCatV1.02B3,2013-04-22 13:16:00,
2013-04-22 09:21:00,47.7,34.9,29.80,ESE,109,0.0,2.0,61,0.00,,,0.00,WeatherCatV1.02B3,2013-04-22 13:21:00,
2013-04-22 09:26:00,48.5,35.7,29.80,South,170,1.0,3.0,61,0.00,,,0.00,WeatherCatV1.02B3,2013-04-22 13:26:00,
2013-04-22 09:31:00,49.1,35.0,29.80,SE,134,1.0,2.0,58,0.00,,,0.00,WeatherCatV1.02B3,2013-04-22 13:31:00,
2013-04-22 09:36:00,49.3,34.7,29.80,ESE,120,2.0,2.0,57,0.00,,,0.00,WeatherCatV1.02B3,2013-04-22 13:36:00,
2013-04-22 09:41:00,49.8,34.7,29.80,ESE,105,1.0,3.0,56,0.00,,,0.00,WeatherCatV1.02B3,2013-04-22 13:41:00,
2013-04-22 09:46:00,50.4,34.8,29.80,SE,143,1.0,5.0,55,0.00,,,0.00,WeatherCatV1.02B3,2013-04-22 13:46:00,
2013-04-22 09:51:00,50.6,33.6,29.80,SE,124,2.0,3.0,52,0.00,,,0.00,WeatherCatV1.02B3,2013-04-22 13:51:00,
2013-04-22 09:56:00,50.9,34.9,29.80,SSW,204,1.0,1.0,54,0.00,,,0.00,WeatherCatV1.02B3,2013-04-22 13:56:00,
2013-04-22 10:01:00,51.9,36.2,29.80,ESE,110,3.0,3.0,55,0.00,,,0.00,WeatherCatV1.02B3,2013-04-22 14:01:00,
2013-04-22 10:06:00,52.2,34.6,29.80,SE,139,1.0,4.0,51,0.00,,,0.00,WeatherCatV1.02B3,2013-04-22 14:06:00,
2013-04-22 10:11:00,52.5,34.9,29.80,SE,139,0.0,2.0,51,0.00,,,0.00,WeatherCatV1.02B3,2013-04-22 14:11:00,
2013-04-22 10:16:00,53.3,34.6,29.79,South,188,0.0,3.0,49,0.00,,,0.00,WeatherCatV1.02B3,2013-04-22 14:16:00,
2013-04-22 10:21:00,53.7,37.5,29.79,SSE,160,0.0,2.0,54,0.00,,,0.00,WeatherCatV1.02B3,2013-04-22 14:21:00,
2013-04-22 10:26:00,54.2,36.0,29.79,WSW,238,4.0,4.0,50,0.00,,,0.00,WeatherCatV1.02B3,2013-04-22 14:26:00,
2013-04-22 10:31:00,54.3,37.1,29.79,South,188,0.0,3.0,52,0.00,,,0.00,WeatherCatV1.02B3,2013-04-22 14:31:00,
2013-04-22 10:33:00,54.5,35.7,29.79,ESE,103,0.0,1.0,49,0.00,,,0.00,WeatherCatV1.02B3,2013-04-22 14:33:00,
2013-04-22 10:38:00,55.0,38.2,29.79,SE,124,0.0,3.0,53,0.00,,,0.00,WeatherCatV1.02B3,2013-04-22 14:38:00,
2013-04-22 10:43:00,55.3,37.0,29.79,ESE,104,1.0,2.0,50,0.00,,,0.00,WeatherCatV1.02B3,2013-04-22 14:43:00,
2013-04-22 10:48:00,55.6,36.2,29.79,SSE,155,0.0,2.0,48,0.00,,,0.00,WeatherCatV1.02B3,2013-04-22 14:48:00,
2013-04-22 10:53:00,55.6,35.7,29.79,SW,231,2.0,3.0,47,0.00,,,0.00,WeatherCatV1.02B3,2013-04-22 14:53:00,
2013-04-22 10:58:00,56.0,35.0,29.79,East,86,5.0,5.0,45,0.00,,,0.00,WeatherCatV1.02B3,2013-04-22 14:58:00,
2013-04-22 11:03:00,56.2,35.1,29.79,SSE,159,2.0,6.0,45,0.00,,,0.00,WeatherCatV1.02B3,2013-04-22 15:03:00,
2013-04-22 11:08:00,56.5,36.5,29.79,NNW,337,1.0,3.0,47,0.00,,,0.00,WeatherCatV1.02B3,2013-04-22 15:08:00,
2013-04-22 11:13:00,57.1,36.0,29.79,SE,143,0.0,5.0,45,0.00,,,0.00,WeatherCatV1.02B3,2013-04-22 15:13:00,
2013-04-22 11:18:00,57.2,36.1,29.79,NNW,332,2.0,5.0,45,0.00,,,0.00,WeatherCatV1.02B3,2013-04-22 15:18:00,
2013-04-22 11:23:00,57.6,35.8,29.79,West,264,1.0,4.0,44,0.00,,,0.00,WeatherCatV1.02B3,2013-04-22 15:23:00,
2013-04-22 11:28:00,57.8,35.5,29.78,West,278,0.0,4.0,43,0.00,,,0.00,WeatherCatV1.02B3,2013-04-22 15:28:00,
2013-04-22 11:33:00,58.1,37.4,29.78,ENE,58,0.0,6.0,46,0.00,,,0.00,WeatherCatV1.02B3,2013-04-22 15:33:00,
2013-04-22 11:38:00,58.9,37.0,29.78,ESE,120,1.0,4.0,44,0.00,,,0.00,WeatherCatV1.02B3,2013-04-22 15:38:00,
2013-04-22 11:43:00,59.0,37.1,29.78,SSW,202,3.0,8.0,44,0.00,,,0.00,WeatherCatV1.02B3,2013-04-22 15:43:00,
2013-04-22 11:48:00,59.1,36.0,29.78,ESE,113,3.0,3.0,42,0.00,,,0.00,WeatherCatV1.02B3,2013-04-22 15:48:00,
2013-04-22 11:53:00,59.0,37.1,29.78,SW,221,3.0,4.0,44,0.00,,,0.00,WeatherCatV1.02B3,2013-04-22 15:53:00,
2013-04-22 11:58:00,59.7,37.8,29.78,East,92,3.0,3.0,44,0.00,,,0.00,WeatherCatV1.02B3,2013-04-22 15:58:00,
2013-04-22 12:03:00,59.9,36.1,29.77,East,93,2.0,3.0,41,0.00,,,0.00,WeatherCatV1.02B3,2013-04-22 16:03:00,
2013-04-22 12:08:00,60.2,35.8,29.77,ESE,103,0.0,4.0,40,0.00,,,0.00,WeatherCatV1.02B3,2013-04-22 16:08:00,
2013-04-22 12:13:00,60.5,36.7,29.77,SW,215,2.0,2.0,41,0.00,,,0.00,WeatherCatV1.02B3,2013-04-22 16:13:00,
2013-04-22 12:18:00,61.1,37.2,29.77,ESE,102,3.0,3.0,41,0.00,,,0.00,WeatherCatV1.02B3,2013-04-22 16:18:00,
2013-04-22 12:23:00,61.3,37.4,29.77,East,101,2.0,2.0,41,0.00,,,0.00,WeatherCatV1.02B3,2013-04-22 16:23:00,
2013-04-22 12:28:00,61.6,38.3,29.77,ESE,113,3.0,3.0,42,0.00,,,0.00,WeatherCatV1.02B3,2013-04-22 16:28:00,
2013-04-22 12:33:00,61.8,37.8,29.77,ESE,110,3.0,6.0,41,0.00,,,0.00,WeatherCatV1.02B3,2013-04-22 16:33:00,
2013-04-22 12:38:00,61.8,35.9,29.76,ESE,105,3.0,3.0,38,0.00,,,0.00,WeatherCatV1.02B3,2013-04-22 16:38:00,
2013-04-22 12:43:00,62.0,36.1,29.76,SE,136,1.0,4.0,38,0.00,,,0.00,WeatherCatV1.02B3,2013-04-22 16:43:00,
2013-04-22 12:48:00,62.0,34.7,29.76,ESE,121,5.0,5.0,36,0.00,,,0.00,WeatherCatV1.02B3,2013-04-22 16:48:00,
2013-04-22 12:53:00,62.1,36.8,29.75,ENE,65,1.0,4.0,39,0.00,,,0.00,WeatherCatV1.02B3,2013-04-22 16:53:00,
2013-04-22 12:58:00,62.3,37.0,29.75,East,94,3.0,4.0,39,0.00,,,0.00,WeatherCatV1.02B3,2013-04-22 16:58:00,
2013-04-22 13:03:00,62.7,36.0,29.75,East,81,3.0,3.0,37,0.00,,,0.00,WeatherCatV1.02B3,2013-04-22 17:03:00,
2013-04-22 13:08:00,62.9,35.5,29.75,East,88,2.0,4.0,36,0.00,,,0.00,WeatherCatV1.02B3,2013-04-22 17:08:00,
2013-04-22 13:13:00,63.0,36.3,29.75,East,82,3.0,3.0,37,0.00,,,0.00,WeatherCatV1.02B3,2013-04-22 17:13:00,
2013-04-22 13:18:00,63.3,38.6,29.75,SE,134,2.0,3.0,40,0.00,,,0.00,WeatherCatV1.02B3,2013-04-22 17:18:00,
2013-04-22 13:23:00,63.8,37.7,29.74,SE,127,3.0,3.0,38,0.00,,,0.00,WeatherCatV1.02B3,2013-04-22 17:23:00,
2013-04-22 13:28:00,63.7,34.8,29.74,East,81,2.0,5.0,34,0.00,,,0.00,WeatherCatV1.02B3,2013-04-22 17:28:00,
2013-04-22 13:33:00,63.7,36.2,29.74,East,96,1.0,4.0,36,0.00,,,0.00,WeatherCatV1.02B3,2013-04-22 17:33:00,
2013-04-22 13:34:00,63.8,37.7,29.74,East,86,2.0,4.0,38,0.00,,,0.00,WeatherCatV1.02B3,2013-04-22 17:34:00,
2013-04-22 13:39:00,63.6,36.2,29.74,ESE,120,2.0,4.0,36,0.00,,,0.00,WeatherCatV1.02B3,2013-04-22 17:39:00,
2013-04-22 13:44:00,63.8,36.3,29.74,WSW,253,2.0,4.0,36,0.00,,,0.00,WeatherCatV1.02B3,2013-04-22 17:44:00,
2013-04-22 13:49:00,63.7,36.2,29.74,SE,129,1.0,2.0,36,0.00,,,0.00,WeatherCatV1.02B3,2013-04-22 17:49:00,
2013-04-22 13:54:00,64.0,36.5,29.74,SSE,161,1.0,3.0,36,0.00,,,0.00,WeatherCatV1.02B3,2013-04-22 17:54:00,
2013-04-22 13:59:00,64.2,33.7,29.74,South,169,1.0,4.0,32,0.00,,,0.00,WeatherCatV1.02B3,2013-04-22 17:59:00,
2013-04-22 14:04:00,64.3,36.1,29.73,ESE,109,2.0,4.0,35,0.00,,,0.00,WeatherCatV1.02B3,2013-04-22 18:04:00,
2013-04-22 14:09:00,64.0,35.8,29.73,NE,40,2.0,3.0,35,0.00,,,0.00,WeatherCatV1.02B3,2013-04-22 18:09:00,
2013-04-22 14:14:00,64.7,37.1,29.73,East,98,2.0,2.0,36,0.00,,,0.00,WeatherCatV1.02B3,2013-04-22 18:14:00,
2013-04-22 14:19:00,65.2,36.1,29.73,ESE,107,2.0,3.0,34,0.00,,,0.00,WeatherCatV1.02B3,2013-04-22 18:19:00,
2013-04-22 14:24:00,65.3,34.7,29.73,SSE,164,1.0,4.0,32,0.00,,,0.00,WeatherCatV1.02B3,2013-04-22 18:24:00,
2013-04-22 14:29:00,65.4,36.3,29.72,SE,129,1.0,3.0,34,0.00,,,0.00,WeatherCatV1.02B3,2013-04-22 18:29:00,
2013-04-22 14:34:00,65.6,37.9,29.72,WSW,248,2.0,3.0,36,0.00,,,0.00,WeatherCatV1.02B3,2013-04-22 18:34:00,
2013-04-22 14:39:00,65.6,34.1,29.72,East,88,1.0,3.0,31,0.00,,,0.00,WeatherCatV1.02B3,2013-04-22 18:39:00,
2013-04-22 14:44:00,65.6,32.5,29.72,SE,129,0.0,2.0,29,0.00,,,0.00,WeatherCatV1.02B3,2013-04-22 18:44:00,
2013-04-22 14:49:00,65.8,34.3,29.72,East,97,1.0,4.0,31,0.00,,,0.00,WeatherCatV1.02B3,2013-04-22 18:49:00,
2013-04-22 14:54:00,65.7,35.8,29.72,SSE,161,1.0,4.0,33,0.00,,,0.00,WeatherCatV1.02B3,2013-04-22 18:54:00,
2013-04-22 14:59:00,66.0,35.3,29.72,ENE,59,1.0,6.0,32,0.00,,,0.00,WeatherCatV1.02B3,2013-04-22 18:59:00,
2013-04-22 15:04:00,65.6,33.3,29.72,NE,56,7.0,7.0,30,0.00,,,0.00,WeatherCatV1.02B3,2013-04-22 19:04:00,
2013-04-22 15:09:00,64.6,36.3,29.71,ENE,61,2.0,3.0,35,0.00,,,0.00,WeatherCatV1.02B3,2013-04-22 19:09:00,
2013-04-22 15:14:00,65.1,33.7,29.71,ESE,111,1.0,3.0,31,0.00,,,0.00,WeatherCatV1.02B3,2013-04-22 19:14:00,
2013-04-22 15:19:00,65.4,34.0,29.71,ESE,113,2.0,5.0,31,0.00,,,0.00,WeatherCatV1.02B3,2013-04-22 19:19:00,
2013-04-22 15:24:00,65.6,34.9,29.70,SW,214,2.0,4.0,32,0.00,,,0.00,WeatherCatV1.02B3,2013-04-22 19:24:00,
2013-04-22 15:29:00,66.0,34.5,29.70,SE,127,2.0,3.0,31,0.00,,,0.00,WeatherCatV1.02B3,2013-04-22 19:29:00,
2013-04-22 15:34:00,66.0,36.1,29.70,NNE,29,3.0,3.0,33,0.00,,,0.00,WeatherCatV1.02B3,2013-04-22 19:34:00,
2013-04-22 15:39:00,66.6,37.3,29.69,SE,129,2.0,3.0,34,0.00,,,0.00,WeatherCatV1.02B3,2013-04-22 19:39:00,
2013-04-22 15:44:00,66.4,37.2,29.69,East,96,1.0,5.0,34,0.00,,,0.00,WeatherCatV1.02B3,2013-04-22 19:44:00,
2013-04-22 15:49:00,66.4,34.8,29.69,SE,139,1.0,3.0,31,0.00,,,0.00,WeatherCatV1.02B3,2013-04-22 19:49:00,
2013-04-22 15:54:00,66.6,35.0,29.69,ESE,121,3.0,3.0,31,0.00,,,0.00,WeatherCatV1.02B3,2013-04-22 19:54:00,
2013-04-22 15:59:00,66.6,36.6,29.68,SSE,162,2.0,3.0,33,0.00,,,0.00,WeatherCatV1.02B3,2013-04-22 19:59:00,
2013-04-22 16:04:00,66.6,35.8,29.68,East,92,1.0,4.0,32,0.00,,,0.00,WeatherCatV1.02B3,2013-04-22 20:04:00,
2013-04-22 16:09:00,66.6,36.6,29.68,East,96,3.0,5.0,33,0.00,,,0.00,WeatherCatV1.02B3,2013-04-22 20:09:00,
2013-04-22 16:14:00,66.5,34.9,29.67,WNW,287,0.0,2.0,31,0.00,,,0.00,WeatherCatV1.02B3,2013-04-22 20:14:00,
2013-04-22 16:19:00,66.7,34.3,29.67,SE,143,4.0,4.0,30,0.00,,,0.00,WeatherCatV1.02B3,2013-04-22 20:19:00,
2013-04-22 16:24:00,66.8,35.2,29.67,East,92,3.0,4.0,31,0.00,,,0.00,WeatherCatV1.02B3,2013-04-22 20:24:00,
2013-04-22 16:29:00,66.6,37.3,29.67,East,100,2.0,4.0,34,0.00,,,0.00,WeatherCatV1.02B3,2013-04-22 20:29:00,
2013-04-22 16:34:00,67.0,36.2,29.66,East,98,2.0,4.0,32,0.00,,,0.00,WeatherCatV1.02B3,2013-04-22 20:34:00,
2013-04-22 16:38:00,67.3,38.7,29.66,East,92,1.0,3.0,35,0.00,,,0.00,WeatherCatV1.02B3,2013-04-22 20:38:00,
2013-04-22 16:43:00,67.0,34.5,29.66,ENE,74,2.0,4.0,30,0.00,,,0.00,WeatherCatV1.02B3,2013-04-22 20:43:00,
2013-04-22 16:48:00,67.1,34.6,29.66,ESE,114,2.0,2.0,30,0.00,,,0.00,WeatherCatV1.02B3,2013-04-22 20:48:00,
2013-04-22 16:53:00,67.5,38.1,29.65,SSE,148,4.0,5.0,34,0.00,,,0.00,WeatherCatV1.02B3,2013-04-22 20:53:00,
2013-04-22 16:58:00,67.2,36.3,29.65,ESE,119,1.0,3.0,32,0.00,,,0.00,WeatherCatV1.02B3,2013-04-22 20:58:00,
2013-04-22 17:03:00,67.1,35.4,29.64,SE,139,1.0,4.0,31,0.00,,,0.00,WeatherCatV1.02B3,2013-04-22 21:03:00,
2013-04-22 17:08:00,66.9,35.3,29.64,ESE,105,2.0,3.0,31,0.00,,,0.00,WeatherCatV1.02B3,2013-04-22 21:08:00,
2013-04-22 17:13:00,66.7,34.3,29.64,ESE,116,4.0,4.0,30,0.00,,,0.00,WeatherCatV1.02B3,2013-04-22 21:13:00,
2013-04-22 17:18:00,66.6,35.0,29.64,ESE,113,2.0,3.0,31,0.00,,,0.00,WeatherCatV1.02B3,2013-04-22 21:18:00,
2013-04-22 17:23:00,66.9,37.6,29.64,ESE,105,2.0,2.0,34,0.00,,,0.00,WeatherCatV1.02B3,2013-04-22 21:23:00,
2013-04-22 17:28:00,66.9,36.9,29.63,ESE,120,2.0,4.0,33,0.00,,,0.00,WeatherCatV1.02B3,2013-04-22 21:28:00,
2013-04-22 17:33:00,66.8,35.2,29.63,East,99,2.0,5.0,31,0.00,,,0.00,WeatherCatV1.02B3,2013-04-22 21:33:00,
2013-04-22 17:38:00,66.6,35.0,29.63,East,99,1.0,3.0,31,0.00,,,0.00,WeatherCatV1.02B3,2013-04-22 21:38:00,
2013-04-22 17:43:00,66.7,35.9,29.63,SE,134,2.0,4.0,32,0.00,,,0.00,WeatherCatV1.02B3,2013-04-22 21:43:00,
2013-04-22 17:48:00,66.4,34.0,29.62,ESE,110,1.0,2.0,30,0.00,,,0.00,WeatherCatV1.02B3,2013-04-22 21:48:00,
2013-04-22 17:53:00,66.3,34.8,29.62,East,100,2.0,3.0,31,0.00,,,0.00,WeatherCatV1.02B3,2013-04-22 21:53:00,
2013-04-22 17:58:00,66.3,33.9,29.62,ESE,121,1.0,2.0,30,0.00,,,0.00,WeatherCatV1.02B3,2013-04-22 21:58:00,
2013-04-22 18:03:00,66.1,34.6,29.62,SE,139,2.0,3.0,31,0.00,,,0.00,WeatherCatV1.02B3,2013-04-22 22:03:00,
2013-04-22 18:08:00,65.6,34.9,29.62,ESE,105,2.0,3.0,32,0.00,,,0.00,WeatherCatV1.02B3,2013-04-22 22:08:00,
2013-04-22 18:13:00,65.0,35.9,29.62,ESE,113,0.0,2.0,34,0.00,,,0.00,WeatherCatV1.02B3,2013-04-22 22:13:00,
2013-04-22 18:18:00,65.0,34.4,29.62,ESE,111,1.0,4.0,32,0.00,,,0.00,WeatherCatV1.02B3,2013-04-22 22:18:00,
2013-04-22 18:23:00,65.2,33.8,29.62,ESE,114,1.0,4.0,31,0.00,,,0.00,WeatherCatV1.02B3,2013-04-22 22:23:00,
2013-04-22 18:28:00,65.2,34.6,29.61,ESE,113,2.0,3.0,32,0.00,,,0.00,WeatherCatV1.02B3,2013-04-22 22:28:00,
2013-04-22 18:33:00,65.1,36.0,29.61,SE,133,1.0,3.0,34,0.00,,,0.00,WeatherCatV1.02B3,2013-04-22 22:33:00,
2013-04-22 18:38:00,65.3,36.2,29.61,SE,131,2.0,3.0,34,0.00,,,0.00,WeatherCatV1.02B3,2013-04-22 22:38:00,
2013-04-22 18:43:00,65.2,35.4,29.61,ESE,110,2.0,3.0,33,0.00,,,0.00,WeatherCatV1.02B3,2013-04-22 22:43:00,
2013-04-22 18:48:00,65.0,35.2,29.61,East,95,5.0,5.0,33,0.00,,,0.00,WeatherCatV1.02B3,2013-04-22 22:48:00,
2013-04-22 18:53:00,64.6,36.3,29.61,ESE,111,2.0,4.0,35,0.00,,,0.00,WeatherCatV1.02B3,2013-04-22 22:53:00,
2013-04-22 18:58:00,64.3,34.6,29.60,ESE,103,2.0,3.0,33,0.00,,,0.00,WeatherCatV1.02B3,2013-04-22 22:58:00,
2013-04-22 19:03:00,64.0,35.8,29.60,East,96,2.0,3.0,35,0.00,,,0.00,WeatherCatV1.02B3,2013-04-22 23:03:00,
2013-04-22 19:08:00,63.8,37.0,29.60,ESE,117,0.0,2.0,37,0.00,,,0.00,WeatherCatV1.02B3,2013-04-22 23:08:00,
2013-04-22 19:13:00,63.7,38.3,29.60,SE,124,1.0,2.0,39,0.00,,,0.00,WeatherCatV1.02B3,2013-04-22 23:13:00,
2013-04-22 19:18:00,63.8,37.0,29.60,ESE,121,0.0,2.0,37,0.00,,,0.00,WeatherCatV1.02B3,2013-04-22 23:18:00,
2013-04-22 19:23:00,63.7,37.6,29.60,ESE,106,1.0,2.0,38,0.00,,,0.00,WeatherCatV1.02B3,2013-04-22 23:23:00,
2013-04-22 19:28:00,63.5,36.8,29.60,ESE,117,1.0,3.0,37,0.00,,,0.00,WeatherCatV1.02B3,2013-04-22 23:28:00,
2013-04-22 19:33:00,63.4,37.3,29.60,SE,127,2.0,2.0,38,0.00,,,0.00,WeatherCatV1.02B3,2013-04-22 23:33:00,
2013-04-22 19:38:00,63.0,37.0,29.60,SE,126,1.0,2.0,38,0.00,,,0.00,WeatherCatV1.02B3,2013-04-22 23:38:00,
2013-04-22 19:43:00,62.7,36.7,29.60,South,170,1.0,2.0,38,0.00,,,0.00,WeatherCatV1.02B3,2013-04-22 23:43:00,
2013-04-22 19:48:00,62.2,37.6,29.60,ESE,115,0.0,0.0,40,0.00,,,0.00,WeatherCatV1.02B3,2013-04-22 23:48:00,
2013-04-22 19:53:00,61.8,36.6,29.60,ESE,103,1.0,1.0,39,0.00,,,0.00,WeatherCatV1.02B3,2013-04-22 23:53:00,
2013-04-22 19:58:00,61.5,36.3,29.59,ESE,117,1.0,1.0,39,0.00,,,0.00,WeatherCatV1.02B3,2013-04-22 23:58:00,
2013-04-22 20:03:00,61.0,36.5,29.60,ESE,111,0.0,1.0,40,0.00,,,0.00,WeatherCatV1.02B3,2013-04-23 00:03:00,
2013-04-22 20:08:00,60.3,37.1,29.59,ESE,115,0.0,0.0,42,0.00,,,0.00,WeatherCatV1.02B3,2013-04-23 00:08:00,
2013-04-22 20:13:00,59.8,36.7,29.59,ESE,111,0.0,1.0,42,0.00,,,0.00,WeatherCatV1.02B3,2013-04-23 00:13:00,
2013-04-22 20:18:00,59.3,36.8,29.60,ESE,112,0.0,0.0,43,0.00,,,0.00,WeatherCatV1.02B3,2013-04-23 00:18:00,
2013-04-22 20:23:00,58.5,37.2,29.60,ESE,112,0.0,0.0,45,0.00,,,0.00,WeatherCatV1.02B3,2013-04-23 00:23:00,
2013-04-22 20:28:00,57.5,37.4,29.60,ESE,112,0.0,0.0,47,0.00,,,0.00,WeatherCatV1.02B3,2013-04-23 00:28:00,
2013-04-22 20:33:00,56.5,36.5,29.60,ESE,111,0.0,0.0,47,0.00,,,0.00,WeatherCatV1.02B3,2013-04-23 00:33:00,
2013-04-22 20:38:00,55.4,37.1,29.60,ESE,112,0.0,0.0,50,0.00,,,0.00,WeatherCatV1.02B3,2013-04-23 00:38:00,
2013-04-22 20:43:00,54.5,37.2,29.60,ESE,112,0.0,0.0,52,0.00,,,0.00,WeatherCatV1.02B3,2013-04-23 00:43:00,
2013-04-22 20:48:00,53.7,37.0,29.60,ESE,112,0.0,0.0,53,0.00,,,0.00,WeatherCatV1.02B3,2013-04-23 00:48:00,
2013-04-22 20:53:00,52.8,36.6,29.60,ESE,112,0.0,0.0,54,0.00,,,0.00,WeatherCatV1.02B3,2013-04-23 00:53:00,
2013-04-22 20:58:00,52.2,36.1,29.60,ESE,112,0.0,0.0,54,0.00,,,0.00,WeatherCatV1.02B3,2013-04-23 00:58:00,
2013-04-22 21:03:00,51.9,37.2,29.60,ESE,112,0.0,0.0,57,0.00,,,0.00,WeatherCatV1.02B3,2013-04-23 01:03:00,
2013-04-22 21:08:00,52.0,36.8,29.60,ESE,112,0.0,0.0,56,0.00,,,0.00,WeatherCatV1.02B3,2013-04-23 01:08:00,
2013-04-22 21:13:00,51.8,37.5,29.61,ESE,111,0.0,0.0,58,0.00,,,0.00,WeatherCatV1.02B3,2013-04-23 01:13:00,
2013-04-22 21:18:00,51.3,37.0,29.61,ESE,112,0.0,0.0,58,0.00,,,0.00,WeatherCatV1.02B3,2013-04-23 01:18:00,
2013-04-22 21:23:00,51.1,37.3,29.61,ESE,112,0.0,0.0,59,0.00,,,0.00,WeatherCatV1.02B3,2013-04-23 01:23:00,
2013-04-22 21:28:00,50.8,37.0,29.61,ESE,111,0.0,0.0,59,0.00,,,0.00,WeatherCatV1.02B3,2013-04-23 01:28:00,
2013-04-22 21:33:00,50.2,37.3,29.60,ESE,112,0.0,0.0,61,0.00,,,0.00,WeatherCatV1.02B3,2013-04-23 01:33:00,
2013-04-22 21:38:00,49.7,37.2,29.60,ESE,112,0.0,0.0,62,0.00,,,0.00,WeatherCatV1.02B3,2013-04-23 01:38:00,
2013-04-22 21:43:00,50.6,37.2,29.60,ESE,112,0.0,1.0,60,0.00,,,0.00,WeatherCatV1.02B3,2013-04-23 01:43:00,
2013-04-22 21:48:00,51.4,37.1,29.60,ESE,112,0.0,0.0,58,0.00,,,0.00,WeatherCatV1.02B3,2013-04-23 01:48:00,
2013-04-22 21:53:00,51.3,37.0,29.60,ESE,111,0.0,0.0,58,0.00,,,0.00,WeatherCatV1.02B3,2013-04-23 01:53:00,
2013-04-22 21:58:00,50.6,36.8,29.60,ESE,111,0.0,0.0,59,0.00,,,0.00,WeatherCatV1.02B3,2013-04-23 01:58:00,
2013-04-22 22:03:00,49.7,36.8,29.60,ESE,112,0.0,0.0,61,0.00,,,0.00,WeatherCatV1.02B3,2013-04-23 02:03:00,
2013-04-22 22:08:00,48.9,36.0,29.60,ESE,111,0.0,0.0,61,0.00,,,0.00,WeatherCatV1.02B3,2013-04-23 02:08:00,
2013-04-22 22:13:00,48.2,36.2,29.60,ESE,112,0.0,0.0,63,0.00,,,0.00,WeatherCatV1.02B3,2013-04-23 02:13:00,
2013-04-22 22:18:00,47.7,36.1,29.60,ESE,111,0.0,0.0,64,0.00,,,0.00,WeatherCatV1.02B3,2013-04-23 02:18:00,
2013-04-22 22:23:00,47.1,36.3,29.60,ESE,111,0.0,0.0,66,0.00,,,0.00,WeatherCatV1.02B3,2013-04-23 02:23:00,
2013-04-22 22:28:00,46.7,37.1,29.60,ESE,111,0.0,0.0,69,0.00,,,0.00,WeatherCatV1.02B3,2013-04-23 02:28:00,
2013-04-22 22:33:00,47.1,38.2,29.60,ESE,111,0.0,0.0,71,0.00,,,0.00,WeatherCatV1.02B3,2013-04-23 02:33:00,
2013-04-22 22:38:00,47.3,38.4,29.60,ESE,111,0.0,0.0,71,0.00,,,0.00,WeatherCatV1.02B3,2013-04-23 02:38:00,
2013-04-22 22:43:00,47.7,38.8,29.60,ESE,111,0.0,0.0,71,0.00,,,0.00,WeatherCatV1.02B3,2013-04-23 02:43:00,
2013-04-22 22:48:00,48.0,38.7,29.60,ESE,112,0.0,0.0,70,0.00,,,0.00,WeatherCatV1.02B3,2013-04-23 02:48:00,
2013-04-22 22:53:00,48.1,38.8,29.60,ESE,112,0.0,0.0,70,0.00,,,0.00,WeatherCatV1.02B3,2013-04-23 02:53:00,
2013-04-22 22:58:00,47.8,38.5,29.60,ESE,112,0.0,0.0,70,0.00,,,0.00,WeatherCatV1.02B3,2013-04-23 02:58:00,
2013-04-22 23:03:00,48.1,38.8,29.60,ESE,112,0.0,0.0,70,0.00,,,0.00,WeatherCatV1.02B3,2013-04-23 03:03:00,
2013-04-22 23:08:00,48.3,38.6,29.60,ESE,111,0.0,0.0,69,0.00,,,0.00,WeatherCatV1.02B3,2013-04-23 03:08:00,
2013-04-22 23:13:00,48.3,38.6,29.60,ESE,111,0.0,0.0,69,0.00,,,0.00,WeatherCatV1.02B3,2013-04-23 03:13:00,
2013-04-22 23:18:00,48.3,38.6,29.60,ESE,111,0.0,0.0,69,0.00,,,0.00,WeatherCatV1.02B3,2013-04-23 03:18:00,
2013-04-22 23:23:00,48.3,38.6,29.59,ESE,112,0.0,0.0,69,0.00,,,0.00,WeatherCatV1.02B3,2013-04-23 03:23:00,
2013-04-22 23:28:00,48.3,38.6,29.59,ESE,112,0.0,0.0,69,0.00,,,0.00,WeatherCatV1.02B3,2013-04-23 03:28:00,
2013-04-22 23:33:00,48.4,38.7,29.59,ESE,112,0.0,0.0,69,0.00,,,0.00,WeatherCatV1.02B3,2013-04-23 03:33:00,
2013-04-22 23:38:00,48.7,39.0,29.59,ESE,112,0.0,0.0,69,0.00,,,0.00,WeatherCatV1.02B3,2013-04-23 03:38:00,
2013-04-22 23:43:00,48.6,39.3,29.59,ESE,112,0.0,0.0,70,0.00,,,0.00,WeatherCatV1.02B3,2013-04-23 03:43:00,
2013-04-22 23:48:00,48.4,39.1,29.59,ESE,111,0.0,0.0,70,0.00,,,0.00,WeatherCatV1.02B3,2013-04-23 03:48:00,
2013-04-22 23:53:00,48.1,39.1,29.59,ESE,112,0.0,0.0,71,0.00,,,0.00,WeatherCatV1.02B3,2013-04-23 03:53:00,
2013-04-22 23:58:00,47.9,39.0,29.59,ESE,112,0.0,0.0,71,0.00,,,0.00,WeatherCatV1.02B3,2013-04-23 03:58:00,